Location: Geroldsau
(48.7259°N, 8.2466°E)
Time: 11:36:05
(UTC+00:00)

Spot 1 - Pass Details

Date: 20 June 2021
Orbit: 575 x 777 km, 98.7° (Epoch: 27 July)

Event Time Altitude Azimuth Distance (km) Brightness Sun altitude
Rises 02:28:56 0° 170° (S) 3,226 7.4 -7.4°
Reaches altitude 10° 02:31:17 10° 173° (S) 2,289 6.6 -7.1°
Maximum altitude 02:36:19 68° 257° (WSW) 798 4.5 -6.6°
Drops below altitude 10° 02:41:10 10° 340° (NNW) 2,205 7.3 -6.0°
Sets 02:43:24 0° 344° (NNW) 3,098 8.1 -5.8°
